Alma, GA

12:22 AM EDT on August 24, 2017 (GMT -0400)
Bacon County

Weather History for KAMG - June, 2013

Change the Weather History Date:

Thursday, June 27, 2013

  Actual Average Record
Temperature  
Mean Temperature 83 °F 81 °F  
Max Temperature 92 °F 92 °F 103 °F (1952)
Min Temperature 73 °F 71 °F 63 °F (2012)
Degree Days  
Heating Degree Days 0 0  
Month to date heating degree days 0 0  
Since 1 June heating degree days 0 0  
Since 1 July heating degree days 1603 1659  
Cooling Degree Days 18 16  
Month to date cooling degree days 412 394  
Year to date cooling degree days 723 824  
Since 1 June cooling degree days 412 394  
Growing Degree Days 32 (Base 50)    
Moisture  
Dew Point 71 °F    
Average Humidity 72    
Maximum Humidity 94    
Minimum Humidity 49    
Precipitation  
Precipitation 0.00 in 0.19 in 1.82 in (1998)
Month to date precipitation 6.00 4.85  
Year to date precipitation 24.66 22.94  
Snow  
Snow 0.00 in 0.00 in 0.00 in ()
Month to date snowfall 0.0 0.0  
Since 1 June snowfall 0.0 0.0  
Since 1 July snowfall T 0.1  
Snow Depth 0.00 in    
Sea Level Pressure  
Sea Level Pressure 29.96 in    
Wind  
Wind Speed 6 mph (SW)    
Max Wind Speed 14 mph    
Max Gust Speed 20 mph    
Visibility 9 miles    
Events      
T = Trace of Precipitation, MM = Missing Value Source: NWS Daily Summary

Daily Weather History Graph

Daily Weather History Graph

Search for Another Location

Airport or City:

Trip Planner

Search our weather history database for the weather conditions in past years. The results will help you decide how hot, cold, wet, or windy it might be!

Date:

Astronomy

Jun. 27, 2013 Rise Set
Actual Time 6:27 AM EDT 8:38 PM EDT
Civil Twilight 5:59 AM EDT 9:06 PM EDT
Nautical Twilight 5:25 AM EDT 9:41 PM EDT
Astronomical Twilight 4:48 AM EDT 10:18 PM EDT
Moon 11:56 PM EDT (6/27) 11:08 AM EDT (6/27)
Length of Visible Light 15h 07m
Length of Day
14h 11m
Waning Gibbous, 76% of the Moon is Illuminated
Jun 27
Waning Gibbous
Jun 30
Last Quarter
Jul 8
New
Jul 15
First Quarter
Jul 22
Full

Hourly Weather History & Observations

Time (EDT) Temp. Heat Index Dew Point Humidity Pressure Visibility Wind Dir Wind Speed Gust Speed Precip Events Conditions
12:53 AM 75.0 °F - 71.1 °F 87% 30.00 in 10.0 mi South 6.9 mph - N/A   Clear
1:53 AM 75.0 °F - 71.1 °F 87% 29.99 in 10.0 mi SSW 3.5 mph - N/A   Clear
2:53 AM 75.0 °F - 71.1 °F 87% 30.00 in 10.0 mi SW 5.8 mph - N/A   Clear
3:53 AM 73.9 °F - 71.1 °F 91% 29.99 in 10.0 mi SW 5.8 mph - N/A   Clear
4:53 AM 73.9 °F - 71.1 °F 91% 29.99 in 10.0 mi SW 3.5 mph - N/A   Mostly Cloudy
5:53 AM 73.0 °F - 71.1 °F 93% 29.99 in 9.0 mi SW 3.5 mph - N/A   Clear
6:53 AM 73.0 °F - 72.0 °F 96% 30.00 in 6.0 mi SSW 3.5 mph - N/A   Clear
7:30 AM 73.4 °F - 71.6 °F 94% 30.02 in 7.0 mi SSW 4.6 mph - N/A   Scattered Clouds
7:44 AM 73.4 °F - 71.6 °F 94% 30.01 in 7.0 mi SSW 4.6 mph - N/A   Mostly Cloudy
7:53 AM 75.0 °F - 73.0 °F 94% 30.00 in 7.0 mi SSW 5.8 mph - N/A   Mostly Cloudy
8:07 AM 75.2 °F - 73.4 °F 94% 30.00 in 9.0 mi SW 6.9 mph - N/A   Scattered Clouds
8:53 AM 79.0 °F - 73.9 °F 84% 30.00 in 10.0 mi SW 5.8 mph - N/A   Partly Cloudy
9:53 AM 82.9 °F 89.4 °F 73.9 °F 74% 30.00 in 10.0 mi West 9.2 mph - N/A   Partly Cloudy
10:53 AM 84.9 °F 90.7 °F 72.0 °F 65% 29.99 in 10.0 mi West 5.8 mph - N/A   Clear
11:53 AM 87.1 °F 92.8 °F 71.1 °F 59% 29.99 in 10.0 mi West 8.1 mph - N/A   Clear
12:53 PM 87.1 °F 93.6 °F 72.0 °F 61% 29.97 in 10.0 mi WSW 6.9 mph - N/A   Scattered Clouds
1:53 PM 89.1 °F 96.0 °F 72.0 °F 57% 29.96 in 10.0 mi SW 8.1 mph - N/A   Scattered Clouds
2:53 PM 91.0 °F 96.6 °F 70.0 °F 50% 29.93 in 10.0 mi SSW 11.5 mph - N/A   Partly Cloudy
3:53 PM 90.0 °F 95.4 °F 70.0 °F 52% 29.91 in 10.0 mi SSW 8.1 mph - N/A   Partly Cloudy
4:53 PM 89.1 °F 94.1 °F 70.0 °F 53% 29.90 in 10.0 mi WSW 8.1 mph - N/A   Partly Cloudy
5:53 PM 87.1 °F 93.6 °F 72.0 °F 61% 29.88 in 10.0 mi Calm Calm - N/A   Clear
6:53 PM 82.9 °F 86.5 °F 69.1 °F 63% 29.87 in 10.0 mi WSW 6.9 mph - N/A   Clear
7:53 PM 82.0 °F 84.9 °F 68.0 °F 62% 29.88 in 10.0 mi WSW 8.1 mph - N/A   Clear
8:53 PM 79.0 °F - 68.0 °F 69% 29.88 in 10.0 mi SSW 5.8 mph - N/A   Clear
9:53 PM 75.9 °F - 69.1 °F 79% 29.88 in 10.0 mi SSW 3.5 mph - N/A   Scattered Clouds
10:53 PM 75.9 °F - 70.0 °F 82% 29.90 in 10.0 mi SSW 6.9 mph - N/A   Clear
11:53 PM 75.9 °F - 70.0 °F 82% 29.91 in 10.0 mi SSW 5.8 mph - N/A   Partly Cloudy